Tracking 30995 objects as of 5-Jul-2025
HD Live streaming from Space Station
objects crossing your sky now

DELTA 1 R/B

Track DELTA 1 R/B now!
10-day predictions


NORAD ID: 575
Int'l Code: 1963-013B
Perigee: 963.6 km
Apogee: 10,795.8 km
Inclination: 42.8 °
Period: 224.9 minutes
Semi major axis: 12250 km
RCS: 0.4447 m2 (medium)
Launch date: May 7, 1963
Source: United States (US)
Launch site: AIR FORCE EASTERN TEST RANGE (AFETR)

Note: This is a ROCKET BODY
Your satellite tracking list
Your tracking list is empty




NASA's NSSDC Master Catalog

Two Line Element Set (TLE):
1 00575U 63013B   25186.57764502 -.00000092  00000-0 -11589-2 0  9997
2 00575  42.7759 292.4536 4012892 152.1491 348.5500  6.40267660453782
Source of the keplerian elements: AFSPC